User: anonymous   Login
Location: Unspecified
(0.0000°N, 0.0000°E)
Time: 12:44:17
(UTC+00:00)
Language:

Tele-X - Orbit

View from above orbital plane
View from above orbital plane
View from above satellite
View from above satellite

Ground track
Ground track

The orbit data is extracted from the following two-line orbital elements,

1 19919U 89027A   18053.09030799 -.00000182 +00000-0 +00000-0 0  9991
2 19919 015.0145 017.7974 0003692 283.9022 243.1418 00.99182801087082
Epoch (UTC): 22 February 2018 02:10:02
Eccentricity: 0.0003692
inclination: 15.0145°
perigee height: 36078 km
apogee height: 36110 km
right ascension of ascending node: 17.7974°
argument of perigee: 283.9022°
revolutions per day: 0.99182801
mean anomaly at epoch: 243.1418°
orbit number at epoch: 8708

The dashed part of the orbit path shows where the satellite is in the earth's shadow,  

DLR